GALAXY 3

导读 | 豆包AI

GALAXY 3(银河3号)是美国“银河”系列早期通信卫星,由休斯通信公司主导开发,于1984年9月21日成功发射。作为该系列初期三颗卫星之一,它主要承担北美地区通信广播传输服务,归属国际通信卫星体系前身运营,后续历经公司收购整合,见证了全球商业通信卫星产业从私营运营到国际整合的发展进程,是美国80年代商业航天通信布局的重要节点。

基本信息
目录编号:
15308
目录名称:
GALAXY 3
国际标识:
1984-101A
轨道中心:
EARTH
卫星名称:
GALAXY 3
卫星全名:
--
卫星状态:
在轨 (已飞行15150 天)
发射日期:
1984-09-21 UTC
国别 :
美国 (US)
星等 :
--
轨道信息
数据来源 国际轨道数据 AOE轨道数据
星历时间 2026-03-14T16:56:30+0800
1天前
查看轨道信息
2026-03-10T22:00:00+0800
4天前
查看轨道信息
半长轴 42284.915km 42285.282km
偏心率 0.000648 0.0006634
轨道倾角 14.152° 14.153°
近地点辐角 19.689° 18.566°
升交点赤经 345.810° 345.840°
平近点角 130.385° 209.463°
近地点 35879.377km 35879.092km
远地点 35934.179km 35935.198km
周期 1442.241分钟 1442.260分钟
每日圈数 0.998446 0.998433
详细信息
使用方式:
暂无
2D轨道图
3D轨道图
轨道高度分析图
轨道倾角分析图
轨道综合分析图
查看轨道综合分析图